| time (UTC) | temp F | wind direction | speed MPH | gust MPH | rain 1hr in | rain 24hr in | rain mn in | humidity % | barometer mb |
| 20260505075238 | 38 | 291 | 6.0 | 8.0 | 0.00 | 0.00 | 0.00 | 69 | 1004.2 |
| 20260505074502 | 37 | 289 | 6.0 | 9.0 | 0.00 | 0.00 | 0.00 | 69 | 1004.0 |
| 20260505074224 | 38 | 285 | 6.0 | 8.0 | 0.00 | 0.00 | 0.00 | 69 | 1003.9 |
| 20260505073004 | 38 | 291 | 6.0 | 8.0 | 0.00 | 0.00 | 0.00 | 69 | 1004.1 |
| 20260505072211 | 38 | 285 | 5.0 | 6.0 | 0.00 | 0.00 | 0.00 | 69 | 1004.0 |
| 20260505071602 | 38 | 288 | 5.0 | 7.0 | 0.00 | 0.00 | 0.00 | 69 | 1004.1 |
| 20260505071137 | 39 | 286 | 5.0 | 6.0 | 0.00 | 0.00 | 0.00 | 69 | 1004.1 |
| 20260505070147 | 39 | 285 | 5.0 | 8.0 | 0.00 | 0.00 | 0.00 | 68 | 1004.1 |
| 20260505070002 | 38 | 288 | 5.0 | 9.0 | 0.00 | 0.00 | 0.00 | 68 | 1004.1 |
| 20260505065141 | 39 | 285 | 5.0 | 8.0 | 0.00 | 0.00 | 0.00 | 67 | 1004.2 |
| 20260505064604 | 39 | 288 | 5.0 | 8.0 | 0.00 | 0.00 | 0.00 | 67 | 1004.2 |
| 20260505063055 | 40 | 291 | 5.0 | 6.0 | 0.00 | 0.00 | 0.00 | 65 | 1003.9 |
| 20260505063002 | 40 | 291 | 5.0 | 7.0 | 0.00 | 0.00 | 0.00 | 65 | 1004.0 |
| 20260505061627 | 40 | 288 | 6.0 | 7.0 | 0.00 | 0.00 | 0.00 | 64 | 1004.1 |
| 20260505060934 | 41 | 284 | 5.0 | 7.0 | 0.00 | 0.00 | 0.00 | 64 | 1004.1 |
| 20260505060002 | 41 | 282 | 6.0 | 7.0 | 0.00 | 0.00 | 0.00 | 63 | 1004.2 |
| 20260505055950 | 41 | 282 | 6.0 | 6.0 | 0.00 | 0.00 | 0.00 | 63 | 1004.1 |
| 20260505055001 | 41 | 278 | 5.0 | 7.0 | 0.00 | 0.00 | 0.00 | 62 | 1004.0 |
| 20260505054626 | 41 | 277 | 6.0 | 8.0 | 0.00 | 0.00 | 0.00 | 62 | 1004.0 |
| 20260505053943 | 41 | 281 | 5.0 | 8.0 | 0.00 | 0.00 | 0.00 | 62 | 1003.9 |
| 20260505053003 | 41 | 283 | 7.0 | 9.0 | 0.00 | 0.00 | 0.00 | 62 | 1004.0 |
| 20260505051956 | 42 | 281 | 6.0 | 7.0 | 0.00 | 0.00 | 0.00 | 62 | 1003.8 |
| 20260505051602 | 41 | 275 | 7.0 | 8.0 | 0.00 | 0.00 | 0.00 | 62 | 1003.8 |
| 20260505050938 | 42 | 278 | 6.0 | 9.0 | 0.00 | 0.00 | 0.00 | 62 | 1003.7 |
| 20260505041602 | 42 | 274 | 5.0 | 7.0 | 0.00 | 0.00 | 0.00 | 59 | 1003.6 |
| 20260505040901 | 43 | 273 | 4.0 | 6.0 | 0.00 | 0.00 | 0.00 | 58 | 1003.4 |
| 20260505040003 | 42 | 272 | 4.0 | 6.0 | 0.00 | 0.00 | 0.00 | 58 | 1003.5 |
| 20260505035843 | 43 | 272 | 4.0 | 5.0 | 0.00 | 0.00 | 0.00 | 58 | 1003.4 |
| 20260505034901 | 43 | 276 | 4.0 | 5.0 | 0.00 | 0.00 | 0.00 | 58 | 1003.4 |
| 20260505034604 | 42 | 274 | 4.0 | 6.0 | 0.00 | 0.00 | 0.00 | 58 | 1003.5 |
| 20260505033910 | 43 | 264 | 3.0 | 4.0 | 0.00 | 0.00 | 0.00 | 58 | 1003.3 |
| 20260505033003 | 43 | 264 | 3.0 | 5.0 | 0.00 | 0.00 | 0.00 | 56 | 1003.4 |
| 20260505032845 | 43 | 264 | 3.0 | 4.0 | 0.00 | 0.00 | 0.00 | 56 | 1003.3 |
| 20260505031815 | 44 | 266 | 3.0 | 5.0 | 0.00 | 0.00 | 0.00 | 56 | 1003.3 |
| 20260505031619 | 43 | 264 | 4.0 | 5.0 | 0.00 | 0.00 | 0.00 | 56 | 1003.4 |
| 20260505030758 | 44 | 275 | 4.0 | 6.0 | 0.00 | 0.00 | 0.00 | 55 | 1003.3 |
| 20260505030002 | 44 | 274 | 5.0 | 7.0 | 0.00 | 0.00 | 0.00 | 54 | 1003.3 |
| 20260505025800 | 44 | 274 | 4.0 | 6.0 | 0.00 | 0.00 | 0.00 | 54 | 1003.2 |
| 20260505024802 | 44 | 272 | 2.0 | 5.0 | 0.00 | 0.00 | 0.00 | 55 | 1003.0 |
| 20260505024611 | 44 | 269 | 3.0 | 6.0 | 0.00 | 0.00 | 0.00 | 55 | 1003.2 |
| 20260505023003 | 45 | 281 | 5.0 | 7.0 | 0.00 | 0.00 | 0.00 | 52 | 1003.0 |
| 20260505022724 | 46 | 281 | 5.0 | 7.0 | 0.00 | 0.00 | 0.00 | 52 | 1002.9 |
| 20260505021711 | 45 | 289 | 5.0 | 11.0 | 0.00 | 0.00 | 0.00 | 52 | 1002.8 |
| 20260505021613 | 45 | 288 | 6.0 | 11.0 | 0.00 | 0.00 | 0.00 | 52 | 1002.9 |
| 20260505020714 | 46 | 300 | 8.0 | 15.0 | 0.00 | 0.00 | 0.00 | 51 | 1002.7 |
| 20260505020002 | 46 | 278 | 10.0 | 16.0 | 0.00 | 0.00 | 0.00 | 50 | 1002.7 |
| 20260505015724 | 46 | 295 | 9.0 | 16.0 | 0.00 | 0.00 | 0.00 | 51 | 1002.6 |
| 20260505014739 | 47 | 309 | 10.0 | 19.0 | 0.00 | 0.00 | 0.00 | 51 | 1002.5 |
| 20260505014603 | 46 | 290 | 8.0 | 19.0 | 0.00 | 0.00 | 0.00 | 51 | 1002.5 |
| 20260505013757 | 47 | 309 | 14.0 | 25.0 | 0.00 | 0.00 | 0.00 | 49 | 1002.4 |
| 20260505013003 | 47 | 315 | 16.0 | 26.0 | 0.00 | 0.00 | 0.00 | 49 | 1002.3 |
| 20260505012725 | 48 | 321 | 19.0 | 29.0 | 0.00 | 0.00 | 0.00 | 50 | 1002.2 |
| 20260505011716 | 48 | 306 | 22.0 | 29.0 | 0.00 | 0.00 | 0.00 | 49 | 1001.9 |
| 20260505011602 | 48 | 347 | 24.0 | 30.0 | 0.00 | 0.00 | 0.00 | 49 | 1002.0 |
| 20260505010640 | 49 | 320 | 18.0 | 28.0 | 0.00 | 0.00 | 0.00 | 49 | 1001.7 |
| 20260505010002 | 49 | 306 | 15.0 | 29.0 | 0.00 | 0.00 | 0.00 | 51 | 1001.6 |
| 20260505005627 | 50 | 310 | 21.0 | 28.0 | 0.00 | 0.00 | 0.00 | 49 | 1001.5 |
| 20260505004616 | 50 | 312 | 22.0 | 29.0 | 0.00 | 0.00 | 0.00 | 50 | 1001.3 |
| 20260505004606 | 50 | 325 | 22.0 | 29.0 | 0.00 | 0.00 | 0.00 | 50 | 1001.3 |
| 20260505003611 | 50 | 323 | 20.0 | 29.0 | 0.00 | 0.00 | 0.00 | 48 | 1001.0 |
| 20260505003002 | 50 | 314 | 18.0 | 30.0 | 0.00 | 0.00 | 0.00 | 48 | 1001.0 |
| 20260505002554 | 51 | 316 | 21.0 | 29.0 | 0.00 | 0.00 | 0.00 | 48 | 1000.9 |
| 20260505001602 | 51 | 322 | 20.0 | 29.0 | 0.00 | 0.00 | 0.00 | 46 | 1000.8 |
| 20260505000456 | 52 | 293 | 18.0 | 27.0 | 0.00 | 0.00 | 0.00 | 47 | 1000.7 |
| 20260505000003 | 51 | 281 | 19.0 | 28.0 | 0.00 | 0.00 | 0.00 | 47 | 1000.6 |
| 20260504235507 | 52 | 297 | 20.0 | 28.0 | 0.00 | 0.00 | 0.00 | 46 | 1000.5 |
| 20260504234602 | 51 | 303 | 18.0 | 31.0 | 0.00 | 0.00 | 0.00 | 48 | 1000.5 |
| 20260504234518 | 52 | 304 | 20.0 | 32.0 | 0.00 | 0.00 | 0.00 | 48 | 1000.4 |
| 20260504233446 | 52 | 315 | 21.0 | 32.0 | 0.00 | 0.00 | 0.00 | 48 | 1000.3 |
| 20260504233002 | 52 | 314 | 21.0 | 33.0 | 0.00 | 0.00 | 0.00 | 47 | 1000.3 |
| 20260504232508 | 52 | 317 | 23.0 | 31.0 | 0.00 | 0.00 | 0.00 | 48 | 1000.2 |
| 20260504231602 | 53 | 309 | 22.0 | 32.0 | 0.00 | 0.00 | 0.00 | 46 | 1000.1 |
| 20260504230317 | 53 | 301 | 22.0 | 30.0 | 0.00 | 0.00 | 0.00 | 47 | 999.9 |
| 20260504230003 | 53 | 309 | 23.0 | 31.0 | 0.00 | 0.00 | 0.00 | 46 | 999.9 |
| 20260504225316 | 53 | 312 | 25.0 | 35.0 | 0.00 | 0.00 | 0.00 | 46 | 999.7 |
| 20260504224604 | 53 | 295 | 27.0 | 36.0 | 0.00 | 0.00 | 0.00 | 45 | 999.7 |
| 20260504224301 | 54 | 309 | 24.0 | 35.0 | 0.00 | 0.00 | 0.00 | 46 | 999.5 |
| 20260504223247 | 55 | 283 | 23.0 | 33.0 | 0.00 | 0.00 | 0.00 | 46 | 999.3 |
| 20260504223003 | 54 | 299 | 24.0 | 34.0 | 0.00 | 0.00 | 0.00 | 45 | 999.3 |
| 20260504222249 | 55 | 300 | 24.0 | 35.0 | 0.00 | 0.00 | 0.00 | 46 | 999.1 |
| 20260504221609 | 55 | 308 | 26.0 | 36.0 | 0.00 | 0.00 | 0.00 | 44 | 999.1 |
| 20260504220211 | 56 | 308 | 26.0 | 37.0 | 0.00 | 0.00 | 0.00 | 47 | 998.7 |
| 20260504220003 | 55 | 321 | 27.0 | 38.0 | 0.00 | 0.00 | 0.00 | 45 | 998.6 |
| 20260504214602 | 56 | 295 | 25.0 | 38.0 | 0.00 | 0.00 | 0.00 | 45 | 998.4 |
| 20260504213002 | 57 | 287 | 24.0 | 33.0 | 0.00 | 0.00 | 0.00 | 44 | 998.1 |
| 20260504212942 | 57 | 278 | 22.0 | 33.0 | 0.00 | 0.00 | 0.00 | 44 | 998.0 |
| 20260504211603 | 57 | 304 | 19.0 | 34.0 | 0.00 | 0.00 | 0.00 | 46 | 998.1 |
| 20260504210823 | 58 | 307 | 20.0 | 32.0 | 0.00 | 0.00 | 0.00 | 44 | 997.9 |
| 20260504210003 | 57 | 304 | 24.0 | 33.0 | 0.00 | 0.00 | 0.00 | 45 | 997.9 |
| 20260504205818 | 57 | 303 | 23.0 | 32.0 | 0.00 | 0.00 | 0.00 | 44 | 997.9 |
| 20260504204619 | 57 | 317 | 22.0 | 37.0 | 0.00 | 0.00 | 0.00 | 44 | 997.8 |
| 20260504203003 | 58 | 283 | 17.0 | 30.0 | 0.00 | 0.00 | 0.00 | 46 | 997.8 |
| 20260504202508 | 59 | 323 | 20.0 | 32.0 | 0.00 | 0.00 | 0.00 | 43 | 997.7 |
| 20260504201612 | 57 | 299 | 21.0 | 33.0 | 0.00 | 0.00 | 0.00 | 44 | 997.6 |
| 20260504201517 | 58 | 311 | 21.0 | 37.0 | 0.00 | 0.00 | 0.00 | 44 | 997.5 |
| 20260504200511 | 58 | 311 | 24.0 | 37.0 | 0.00 | 0.00 | 0.00 | 43 | 997.5 |
| 20260504200002 | 58 | 304 | 23.0 | 38.0 | 0.00 | 0.00 | 0.00 | 45 | 997.4 |
| 20260504195450 | 58 | 283 | 23.0 | 32.0 | 0.00 | 0.00 | 0.00 | 45 | 997.1 |
| 20260504194602 | 58 | 289 | 24.0 | 32.0 | 0.00 | 0.00 | 0.00 | 44 | 997.4 |
| 20260504194435 | 58 | 287 | 21.0 | 36.0 | 0.00 | 0.00 | 0.00 | 45 | 997.4 |
| 20260504193428 | 59 | 280 | 21.0 | 36.0 | 0.00 | 0.00 | 0.00 | 44 | 997.3 |
| 20260504193003 | 59 | 309 | 20.0 | 37.0 | 0.00 | 0.00 | 0.00 | 45 | 997.3 |
| 20260504191603 | 58 | 283 | 27.0 | 36.0 | 0.00 | 0.00 | 0.00 | 47 | 997.0 |
| 20260504191254 | 58 | 290 | 20.0 | 31.0 | 0.00 | 0.00 | 0.00 | 48 | 996.9 |
| 20260504190254 | 58 | 278 | 20.0 | 31.0 | 0.00 | 0.00 | 0.00 | 48 | 997.0 |
| 20260504190006 | 57 | 285 | 22.0 | 32.0 | 0.00 | 0.00 | 0.00 | 46 | 996.9 |
| 20260504185224 | 57 | 285 | 21.0 | 30.0 | 0.00 | 0.00 | 0.00 | 46 | 997.0 |
| 20260504184603 | 57 | 281 | 19.0 | 31.0 | 0.00 | 0.00 | 0.00 | 48 | 996.9 |
| 20260504184226 | 58 | 286 | 20.0 | 30.0 | 0.00 | 0.00 | 0.00 | 46 | 996.8 |
| 20260504183003 | 58 | 309 | 20.0 | 29.0 | 0.00 | 0.00 | 0.00 | 44 | 996.6 |
| 20260504182117 | 60 | 306 | 22.0 | 38.0 | 0.00 | 0.00 | 0.00 | 44 | 996.5 |
| 20260504181614 | 59 | 305 | 24.0 | 39.0 | 0.00 | 0.00 | 0.00 | 39 | 996.4 |
| 20260504180003 | 60 | 280 | 23.0 | 34.0 | 0.00 | 0.00 | 0.00 | 40 | 996.0 |
| 20260504175021 | 60 | 304 | 25.0 | 36.0 | 0.00 | 0.00 | 0.00 | 41 | 995.7 |
| 20260504174604 | 60 | 281 | 30.0 | 37.0 | 0.00 | 0.00 | 0.00 | 41 | 995.8 |
| 20260504174013 | 60 | 288 | 20.0 | 34.0 | 0.00 | 0.00 | 0.00 | 45 | 995.7 |
| 20260504173034 | 60 | 290 | 24.0 | 34.0 | 0.00 | 0.00 | 0.00 | 45 | 995.7 |
| 20260504173006 | 60 | 309 | 24.0 | 35.0 | 0.00 | 0.00 | 0.00 | 44 | 995.7 |
| 20260504172016 | 61 | 301 | 22.0 | 31.0 | 0.00 | 0.00 | 0.00 | 42 | 995.5 |
| 20260504171606 | 61 | 304 | 25.0 | 32.0 | 0.00 | 0.00 | 0.00 | 41 | 995.5 |
| 20260504171001 | 62 | 292 | 20.0 | 31.0 | 0.00 | 0.00 | 0.00 | 45 | 995.5 |
| 20260504150336 | 58 | 275 | 17.0 | 24.0 | 0.00 | 0.00 | 0.00 | 50 | 995.2 |
| 20260504140329 | 59 | 323 | 24.0 | 37.0 | 0.00 | 0.00 | 0.00 | 47 | 994.8 |
| 20260504130300 | 59 | 279 | 16.0 | 24.0 | 0.00 | 0.00 | 0.00 | 55 | 994.1 |
| 20260504120241 | 57 | 264 | 13.0 | 19.0 | 0.00 | 0.00 | 0.00 | 55 | 993.6 |
| 20260504110159 | 56 | 235 | 14.0 | 20.0 | 0.00 | 0.00 | 0.00 | 54 | 992.8 |
| 20260504110104 | 55 | 230 | 13.0 | 21.0 | 0.00 | 0.00 | 0.00 | 54 | 992.9 |
| 20260504100105 | 55 | 230 | 12.0 | 16.0 | 0.00 | 0.00 | 0.00 | 55 | 993.4 |
| 20260504081502 | 54 | 221 | 10.0 | 14.0 | 0.00 | 0.00 | 0.00 | 54 | 995.1 |
| 20260504081037 | 55 | 229 | 10.0 | 12.0 | 0.00 | 0.00 | 0.00 | 55 | 995.1 |
| 20260504080104 | 54 | 222 | 10.0 | 12.0 | 0.00 | 0.00 | 0.00 | 54 | 995.4 |